FENGYUN 1C DEB, 31560

Orbit data source: Space-Track

FENGYUN 1C DEB, 31560 is space debris in SSO originally from a launch on Mon, 10 May 1999 UTC launched from the Taiyaun Space Center, China (TSC). Fengyun 1C debris stems from the Chinese weather satellite Fengyun-1C, which was intentionally destroyed by a Chinese anti-satellite missile in 2007. This event dramatically increased the amount of space debris, with thousands of trackable fragments posing hazards to satellites and human spaceflight. The Fengyun 1C debris cloud has become a focal point in discussions about space sustainability and the need for international regulations to prevent the creation of new debris.

Loading next visibility...
Identifier
31560, 1999-025BZB
Orbit
SSO
Country
Flag of CNCN / PRC
Related business
Manufacturer
Unknown
Mission
Spacecraft
Bus & Motor
Unknown
Mass
Unknown
Launch date (UTC)
1999-05-10 (27 years ago)
Launch vehicle
Unknown
Launch site
Taiyaun Space Center, China (TSC)
Object type
Payload
Rocket body
Debris
Shape & HBR
Unknown shape, 0.1 m
Radar Cross Section
Medium (>0.1 m² and <1 m²)

Expand to show TLE details & history
Last TLE update: 2 days ago

TLE from 2 days ago
0 FENGYUN 1C DEB
1 31560U 99025BZB 26207.89387853  .00000080  00000-0  52090-4 0  9996
2 31560  98.5613 242.5116 0120963  13.0585 347.3678 14.21282787998313
Epoch: 2026-07-26T21:27Z
TLE epoch observation values (Epoch: 2026-07-26T21:27:11.104Z)
Latitude
-0.00003°
Longitude
-23.86993°
Altitude
738.998 km
Speed
7.529 km/s
True Right ascension
16h 10m 02s
True Declination
0° 00' 00"
Sunlit
Object was in daylight at epoch
Visualization orbit readout
Latitude
Unknown
Longitude
Unknown
Altitude
Unknown
Speed
Unknown
Apparent Right ascension
Unknown
Apparent Declination
Unknown
Sunlit
N/A
Visualization observer readout
Local Sidereal Time
08:46:16
Azimuth
Unknown
Elevation
Unknown
Doppler factor
Unknown
Orbital elements
Apogee altitude
905.216 km
Perigee altitude
731.118 km
Semi-major axis
7,196.304 km
Eccentricity
0.0121
Inclination
98.5613°
RAAN
242.5116°
Arg. of periapsis
13.0585°
True anomaly
347.06013°
Mean anomaly
347.3678°
Eccentric anomaly
347.21442°
Mean motion
3.55532 °/min
Orbital period
101.26 mins
BSTAR
0.00005209
Loading maneuver chart data...
Computing Atmospheric mass density...
Loading historical data...
Loading historical data...
Loading historical data...
Loading historical data...
Loading historical data...
Loading historical data...
Loading historical data...

Documentation

Showing up to 5 results
|